Theta_e
344 344 344 343 342 341 339 337 337 339 340 341 343 346 348 348 348 348 349 349 349 349 349 348 346 346 346 345 345 344 343 345 345 344 343 343 343 343 343 343 343 343 343 344 344 344 344 344 345 345 345 345 345 346 348 350 350 349 348 348 347 346 345 345 347 346 342 342 342 341 342 342 339 336 334 332 331 330 328 329 329 329 329 329 327
344 344 344 343 341 340 339 338 336 338 340 342 342 345 347 347 347 348 348 347 348 347 347 346 345 345 346 346 347 346 344 346 347 347 345 344 343 342 342 342 342 342 342 342 343 343 343 344 344 344 344 343 343 343 345 348 349 350 349 347 345 345 343 343 344 343 341 340 339 338 338 337 335 335 335 334 333 331 330 330 331 331 331 331 329
344 344 345 344 342 340 339 338 337 337 339 340 341 343 345 346 347 347 347 346 346 346 345 344 343 343 343 344 347 348 347 348 349 350 349 347 345 343 342 342 342 342 341 341 341 342 342 342 342 343 343 342 342 342 343 344 344 345 345 345 343 342 342 342 343 343 342 339 336 335 336 336 336 337 338 337 336 334 333 333 333 333 333 333 332
344 344 345 345 343 341 340 339 338 337 338 338 339 341 343 345 345 345 345 345 345 344 343 342 341 340 340 340 343 345 347 348 349 349 349 347 346 344 343 342 342 341 341 340 339 339 339 340 340 340 340 339 340 341 341 342 341 341 342 342 341 340 340 340 341 342 342 339 334 331 333 334 336 338 339 339 337 336 336 335 335 334 334 333 334
344 344 345 345 345 344 343 341 340 338 338 338 339 339 341 344 344 343 343 343 343 342 341 340 339 338 338 338 339 341 344 346 347 347 347 347 346 345 344 343 341 340 340 339 337 337 337 337 337 337 337 337 337 338 338 339 339 340 340 341 340 339 338 338 339 340 341 339 335 330 331 333 335 337 339 339 338 336 335 335 335 334 334 334 335
345 344 345 345 346 346 346 345 343 340 338 338 338 339 340 342 343 342 341 341 341 340 340 339 339 339 339 339 339 339 341 344 345 346 347 346 346 345 343 342 341 339 339 338 337 337 337 337 336 336 336 335 335 336 336 336 337 338 338 338 339 338 337 337 337 337 337 336 334 331 331 334 336 337 339 339 338 337 335 333 332 332 333 334 334
345 345 345 346 347 347 347 347 346 345 341 338 338 338 339 341 342 343 342 341 340 339 338 338 338 339 339 339 339 339 340 341 342 343 344 345 345 344 343 342 341 340 339 338 337 337 337 337 337 337 336 335 335 336 335 336 336 335 335 336 337 338 338 337 337 338 337 336 335 334 334 336 338 339 339 340 339 337 334 331 329 329 331 332 333
344 344 345 345 346 348 349 348 347 347 346 341 338 338 339 340 341 343 343 341 340 339 338 338 338 338 339 339 339 339 339 339 339 340 342 343 345 345 345 344 343 342 341 340 339 338 337 337 337 337 336 336 335 335 335 335 334 333 332 333 334 335 335 335 335 335 336 335 335 335 335 337 337 336 336 336 335 333 332 332 331 331 332 333 333
344 344 344 345 346 346 347 348 348 348 347 345 341 338 338 338 338 339 340 340 340 339 338 338 337 337 337 338 339 341 341 340 338 338 340 343 345 346 345 345 345 344 344 343 343 342 341 341 340 340 340 340 340 339 338 337 336 333 331 331 332 332 333 333 333 332 332 331 331 331 330 330 330 329 329 329 330 331 332 336 337 337 338 338 336
345 345 345 345 345 345 346 347 348 348 348 348 345 340 338 338 337 337 337 337 338 337 337 336 336 336 336 337 339 341 342 341 340 340 342 343 344 345 345 344 345 345 345 345 344 344 343 343 343 343 343 343 344 343 343 343 342 340 339 338 339 340 340 340 340 339 339 337 336 335 334 332 330 330 330 329 331 334 337 340 341 342 343 344 342
346 346 346 346 346 346 347 348 348 348 348 348 347 342 339 339 340 340 338 337 337 337 336 336 336 336 336 336 338 341 341 341 341 342 343 344 345 345 345 344 344 343 344 344 344 344 344 344 344 344 344 344 345 345 345 346 346 346 346 345 346 347 347 347 346 346 346 345 344 343 343 341 339 338 338 337 337 339 341 342 343 344 345 345 345
347 348 347 347 348 347 347 349 349 349 349 348 348 345 340 338 340 343 344 342 340 339 338 337 337 339 339 339 339 340 340 339 339 343 344 345 346 346 345 345 344 343 342 342 343 343 343 344 344 344 344 344 345 345 346 347 347 347 347 347 347 347 347 347 347 347 347 347 347 346 346 345 344 343 343 342 342 343 343 344 344 344 344 344 345
349 349 349 349 349 348 348 350 350 350 349 349 349 348 345 341 340 343 347 347 344 341 340 339 340 343 345 346 345 344 343 340 339 342 345 346 347 347 346 346 345 344 344 342 342 342 342 343 343 344 344 344 345 346 346 347 347 347 347 346 346 346 347 347 347 348 348 348 348 348 347 347 347 346 346 345 345 345 345 345 345 344 344 345 346
349 349 349 349 349 349 349 350 350 350 350 350 349 349 349 347 344 344 347 349 347 344 343 344 344 345 347 349 350 351 350 348 346 347 349 349 349 349 348 347 345 345 345 344 343 342 342 342 343 343 344 344 345 346 346 347 348 347 347 347 347 347 348 349 350 350 350 350 350 349 349 349 349 348 348 347 347 346 346 346 346 345 345 346 346
346 346 347 348 349 349 350 350 350 350 350 350 350 349 350 348 345 343 346 348 349 348 348 348 348 348 349 349 350 352 352 352 352 352 352 351 351 351 350 348 346 345 345 345 345 344 344 344 344 344 344 344 345 345 346 347 347 346 346 347 347 348 349 350 351 351 351 351 350 350 349 348 348 349 348 349 348 347 347 347 346 346 347 347 347
343 343 345 346 346 347 348 349 349 350 349 350 350 350 350 349 345 344 346 348 349 349 349 349 349 349 350 349 349 350 350 351 352 353 352 352 351 351 350 349 347 346 345 345 345 346 346 345 345 344 344 344 344 345 345 345 346 346 346 348 348 349 350 350 351 350 350 350 349 349 348 348 348 348 348 348 349 349 349 348 347 347 347 347 348
339 340 341 342 342 343 344 346 347 348 348 348 349 349 351 351 349 348 349 349 350 350 350 349 349 348 348 349 349 349 349 350 350 351 352 351 351 351 350 350 348 346 345 345 346 347 348 347 347 346 346 345 345 344 345 345 345 346 348 349 350 350 350 350 350 349 348 348 348 348 348 348 348 349 348 348 348 349 349 349 349 348 348 348 348
332 333 335 337 338 339 340 341 342 343 343 344 346 346 347 349 350 350 350 351 351 351 351 351 350 350 350 350 351 351 351 351 350 350 351 351 351 351 350 349 348 346 345 346 346 347 348 349 349 349 348 347 346 346 346 346 347 349 349 351 351 350 350 349 349 348 348 347 347 348 348 347 347 348 349 349 349 349 349 349 349 349 348 349 349
326 327 329 331 332 333 334 334 335 335 336 338 341 343 345 346 347 348 348 349 350 350 351 352 351 351 351 351 351 352 352 351 350 350 351 351 351 351 350 349 348 348 348 348 348 348 349 349 349 349 349 349 349 349 349 349 350 351 351 350 350 350 350 349 348 348 348 348 348 348 347 346 347 348 348 349 350 350 350 350 349 349 349 349 350
327 327 327 327 328 327 326 325 324 322 324 328 330 333 336 338 339 341 343 344 346 347 348 348 349 349 349 349 350 351 351 351 350 350 351 351 351 351 351 351 351 351 350 350 350 350 350 350 350 350 350 350 350 350 350 350 350 350 350 350 350 350 351 350 350 350 350 350 349 349 348 348 348 349 350 350 351 351 350 350 350 350 350 350 350
324 325 325 326 326 325 323 322 318 315 319 325 324 322 326 329 331 333 335 336 339 341 342 344 345 346 347 347 348 348 348 349 349 349 351 352 352 352 352 352 352 352 352 352 352 352 352 351 351 351 351 351 351 351 350 350 350 350 350 351 351 351 351 351 351 351 351 351 350 350 350 350 350 350 351 352 352 352 352 352 352 352 352 352 351
318 319 320 321 322 322 322 322 318 314 318 324 324 323 325 325 325 328 331 332 333 335 337 340 342 343 344 345 345 346 347 347 348 348 349 350 350 351 351 350 351 351 350 351 351 351 351 351 350 351 350 350 350 350 350 350 350 351 351 352 352 352 352 352 351 351 350 350 350 350 350 350 351 351 351 353 353 353 352 352 352 353 353 353 352
314 314 313 313 314 315 315 315 315 312 313 318 324 328 330 328 325 324 325 329 332 334 337 340 342 342 342 342 343 344 343 341 340 343 347 348 348 348 347 347 348 348 348 349 349 349 349 348 347 347 348 348 348 348 349 350 350 351 350 349 347 347 346 345 344 344 343 343 344 345 347 350 350 349 349 351 352 352 352 351 351 352 352 352 353
310 309 309 309 308 308 309 309 309 310 310 314 321 329 333 333 332 328 327 331 336 338 340 341 341 341 339 337 335 334 332 328 326 329 333 335 336 336 334 332 331 330 332 335 338 339 341 340 339 340 341 341 339 338 338 339 340 339 337 334 332 331 330 330 330 330 330 332 333 337 340 344 346 346 346 348 350 351 351 351 351 351 351 352 352
306 306 306 306 306 306 307 307 307 307 308 310 316 324 329 333 335 335 334 337 340 341 342 341 340 338 333 329 327 327 325 324 323 323 322 322 323 323 322 320 317 315 316 318 320 323 324 325 327 328 328 327 325 324 324 324 324 324 323 323 324 326 327 328 328 329 331 335 337 338 339 340 342 343 343 344 346 349 350 351 351 351 351 351 351
305 305 305 305 305 305 305 306 306 306 307 307 309 314 321 327 331 334 336 337 338 339 340 339 338 335 332 330 330 330 329 329 329 329 328 327 327 326 324 323 321 318 315 313 313 315 316 317 318 319 318 318 317 316 316 316 317 319 322 325 331 335 337 336 335 336 338 340 340 340 340 341 342 341 341 343 344 347 348 349 350 351 351 350 350
304 305 305 304 305 305 305 305 305 305 306 306 306 307 311 316 321 326 330 333 335 336 337 336 336 334 333 333 333 333 332 332 332 332 332 332 331 330 329 327 325 321 316 313 312 313 314 314 315 315 315 315 314 314 315 316 317 319 322 326 331 336 338 338 337 338 340 340 340 340 341 342 342 342 343 344 345 346 346 346 346 347 348 349 349
304 305 305 304 304 304 304 304 304 305 305 305 305 306 306 307 310 314 318 322 326 329 331 332 333 333 333 333 333 332 331 330 330 331 330 330 330 329 327 325 321 318 315 313 312 313 314 315 315 315 315 315 315 316 317 317 318 320 322 325 329 332 334 335 336 337 339 339 340 340 340 341 341 342 342 343 344 345 345 345 345 345 346 347 347
304 304 304 304 304 304 304 304 304 305 305 305 305 305 305 306 306 307 308 310 313 316 319 322 324 325 326 327 327 326 325 325 325 325 324 323 322 321 320 318 316 314 313 312 313 314 315 316 316 317 317 317 317 318 318 318 319 320 322 325 328 330 331 331 332 333 334 336 337 338 339 339 339 339 341 343 344 345 345 345 346 347 348 349 349
304 304 304 304 304 304 304 305 305 305 305 306 306 306 306 306 306 306 306 307 307 308 309 311 313 314 316 317 317 317 317 317 316 316 316 316 316 315 315 315 314 314 314 314 314 315 317 319 321 320 319 320 320 320 320 321 320 320 321 321 323 323 324 324 326 327 328 331 333 335 336 337 337 338 339 341 342 343 344 346 347 347 348 348 349
303 303 303 303 304 304 304 304 305 305 305 305 306 306 307 307 307 307 308 308 307 307 307 308 308 308 309 310 311 311 311 311 311 311 312 312 313 313 314 314 314 315 315 316 318 321 323 325 326 325 323 323 324 323 324 324 324 324 323 323 322 321 320 320 320 320 320 322 323 325 326 329 331 334 335 336 338 340 342 343 344 346 347 347 347
303 303 303 303 303 304 304 304 304 304 305 305 306 306 307 308 308 308 308 308 309 309 309 309 309 309 309 309 309 310 310 311 311 312 312 312 312 313 313 314 314 315 316 318 321 325 327 327 327 326 325 325 325 325 325 326 325 325 325 325 325 325 324 323 322 321 320 320 319 318 318 319 320 322 325 327 330 333 337 340 340 341 344 347 347
305 304 303 303 303 303 303 304 304 304 305 305 305 306 307 309 310 310 311 310 310 310 310 310 310 310 311 311 311 311 311 311 312 313 313 313 313 313 314 315 316 317 317 318 321 325 326 326 325 326 326 326 326 325 325 325 324 323 322 322 322 322 322 322 321 321 321 321 320 319 318 316 315 315 315 316 318 321 325 329 332 335 340 344 346
307 305 303 303 303 303 303 303 303 304 305 305 306 308 310 310 311 312 314 314 314 312 311 311 311 311 311 312 312 312 312 312 312 313 314 315 315 315 315 316 317 318 318 318 319 322 324 324 324 323 323 324 324 323 322 321 320 319 317 315 315 315 315 315 315 315 315 316 316 315 315 315 315 314 313 313 313 314 316 319 322 325 330 334 338
307 306 304 303 303 303 303 303 304 304 305 306 307 309 311 311 311 312 314 315 315 315 314 312 311 311 312 312 312 312 312 312 313 314 315 316 317 317 316 317 319 320 321 320 320 321 321 322 321 321 320 320 319 318 318 317 316 315 314 313 313 313 313 313 313 314 313 314 313 313 313 313 313 313 313 313 313 313 314 315 316 317 318 321 325
308 306 304 303 303 303 303 304 304 305 305 306 307 309 310 311 311 312 314 314 314 315 314 313 311 311 312 312 312 312 312 312 312 313 314 316 317 317 317 317 320 321 322 322 322 321 321 321 320 320 319 319 318 317 316 315 315 315 315 315 315 315 314 315 314 314 314 314 314 314 314 313 313 313 313 313 313 313 313 313 313 313 314 315 316
309 308 305 304 303 303 303 304 304 305 306 306 308 309 310 311 312 313 313 314 313 313 313 313 312 312 313 313 312 312 312 312 312 313 313 314 315 316 316 317 319 320 321 321 321 321 320 320 320 320 319 319 318 317 317 316 316 316 316 316 316 316 316 316 315 315 315 314 314 314 314 313 313 313 313 313 313 313 313 313 313 312 312 312 313
310 309 307 305 303 303 303 304 304 305 306 308 309 310 311 311 312 312 312 312 312 312 312 313 313 314 314 313 312 311 312 312 313 313 313 314 315 315 316 317 317 318 319 320 320 319 319 319 319 319 319 319 318 318 317 317 317 317 316 316 316 316 316 316 315 315 315 314 314 314 314 314 314 313 313 313 313 313 313 313 312 312 312 312 313
310 310 309 307 305 304 303 304 305 306 307 308 309 310 310 310 311 310 310 310 311 311 312 312 312 312 312 312 311 311 311 312 312 312 312 313 314 314 315 315 316 316 317 318 318 318 319 319 319 319 319 318 317 317 317 317 316 316 316 316 316 316 316 316 315 315 315 314 314 314 314 314 314 314 314 314 313 313 313 313 312 312 312 312 313
310 310 309 307 305 304 303 303 305 306 307 308 308 308 309 309 309 309 309 309 310 310 310 310 310 310 310 310 310 310 310 311 311 312 312 312 312 312 313 313 313 314 315 317 318 318 318 318 318 318 318 318 317 317 317 317 316 316 316 315 315 315 315 315 315 314 314 314 314 314 314 314 314 314 314 314 314 313 313 313 312 312 313 313 313
309 309 308 306 305 303 303 304 305 306 306 306 307 307 307 307 307 308 308 308 308 308 308 309 309 309 309 309 309 309 309 309 310 310 310 311 311 311 311 312 312 313 313 314 315 316 317 318 317 317 317 317 317 317 317 316 316 315 315 315 315 314 314 314 314 313 313 313 314 314 313 313 313 313 313 313 313 312 312 312 312 313 313 313 313
309 308 307 305 303 303 303 304 304 304 305 305 305 305 306 306 306 306 307 307 307 307 307 308 308 308 307 307 308 308 308 308 308 308 308 309 310 310 310 310 311 311 312 313 314 315 315 316 316 317 317 317 316 316 316 315 315 315 314 314 313 313 313 313 312 312 312 312 312 312 312 312 312 312 312 311 311 311 311 311 312 312 313 313 314
308 307 305 304 303 302 302 303 303 304 304 304 304 304 305 305 306 306 306 306 306 306 306 306 306 306 306 306 306 306 307 307 307 307 307 307 307 308 308 309 309 309 310 311 312 313 314 314 315 315 316 316 316 316 315 314 314 314 313 313 312 312 311 311 311 310 310 310 311 311 312 312 312 312 311 311 311 311 311 312 312 312 313 313 314
306 304 303 303 302 302 302 302 303 303 303 303 304 304 304 305 305 305 304 304 304 304 305 305 304 304 304 304 304 304 305 305 305 305 305 305 305 306 306 307 307 308 308 309 310 311 312 313 314 314 315 315 315 315 314 313 313 313 313 312 312 311 311 310 309 309 309 309 309 310 311 311 312 312 312 312 312 312 311 312 312 312 313 314 314
303 303 302 302 302 302 302 302 302 302 303 303 303 303 303 303 303 302 302 302 303 303 303 302 302 302 302 302 302 302 302 303 303 303 303 303 304 304 304 305 305 306 307 307 308 309 310 311 311 312 313 313 313 313 313 313 313 312 312 312 311 310 310 309 308 308 308 308 308 308 309 310 310 311 310 310 311 311 312 312 311 311 311 312 313
302 301 301 301 301 301 301 301 301 301 301 301 301 301 301 301 301 300 300 301 301 300 300 301 300 300 300 300 299 300 300 300 301 301 301 301 302 303 303 303 304 304 305 305 306 308 308 309 310 310 311 311 311 312 312 312 312 311 311 311 310 309 309 308 308 308 308 308 307 307 307 308 309 309 309 309 311 312 312 312 311 311 310 310 311
300 299 299 299 299 299 299 299 300 299 299 299 299 299 299 299 299 298 298 298 299 299 299 299 298 298 298 298 298 298 299 299 299 300 300 300 301 302 302 302 303 303 303 303 304 305 307 308 309 309 310 310 310 310 310 310 310 309 309 309 308 308 307 307 308 307 307 307 306 306 306 306 307 308 308 309 311 312 312 311 311 311 310 310 311
299 298 298 298 298 298 298 298 298 298 298 298 298 298 298 297 297 297 297 297 297 298 298 297 297 297 297 297 297 297 298 298 298 299 300 300 301 301 301 301 301 301 302 302 302 303 304 305 305 306 306 307 307 307 307 307 307 307 307 307 307 307 307 307 307 307 306 306 306 306 306 306 307 308 309 309 310 311 311 311 311 310 310 310 310
297 297 297 297 297 297 297 297 296 296 297 297 297 297 297 296 296 297 297 297 297 297 297 296 296 295 296 296 296 296 296 297 298 299 299 300 300 300 300 300 300 300 300 300 300 300 300 301 301 302 302 303 303 303 303 304 304 304 304 304 305 305 306 306 306 306 306 306 305 305 306 306 307 307 308 309 310 310 311 311 311 310 310 310 310
296 297 297 296 296 296 296 296 296 296 296 296 295 295 295 296 296 296 296 296 296 296 295 295 295 295 295 295 295 295 296 297 297 298 299 299 299 299 299 299 299 299 299 299 299 299 299 299 299 300 300 300 301 301 301 301 301 302 302 302 303 303 304 304 305 305 305 304 304 304 304 305 305 307 308 309 309 310 310 310 310 310 310 310 310
296 296 296 296 296 295 295 295 295 295 295 295 294 294 294 295 295 295 295 295 295 294 294 294 294 294 294 294 294 294 295 296 296 297 297 297 297 297 297 297 297 297 297 297 297 297 298 298 298 298 298 299 299 299 299 300 300 300 300 300 301 301 302 302 303 303 303 303 303 304 304 304 305 306 307 308 309 309 310 310 310 310 310 310 310
Wind_Speed
21 20 20 21 21 21 21 21 21 20 20 19 18 18 17 15 13 13 13 12 11 10 10 9 9 9 10 10 10 10 10 9 8 8 7 7 7 7 8 8 7 7 7 7 7 7 7 7 7 7 7 8 8 9 9 9 9 9 9 9 9 9 10 11 14 17 16 14 13 12 11 11 9 7 7 8 8 9 10 10 11 12 14 15 17
23 21 20 20 21 20 20 21 21 21 21 21 19 18 17 16 14 14 13 13 12 11 10 10 10 10 10 11 11 11 11 10 9 8 8 7 7 8 8 8 8 8 8 8 8 8 9 8 8 8 8 9 9 9 10 10 10 10 9 10 10 10 11 12 14 16 18 16 15 13 11 10 8 6 7 9 9 10 10 11 11 12 14 15 17
24 22 20 19 20 20 20 20 21 21 21 22 21 19 18 17 15 15 14 13 13 12 11 11 11 11 11 12 12 12 12 11 10 9 8 8 8 8 8 8 8 8 8 8 9 9 10 9 9 8 9 10 10 10 10 11 11 11 11 11 11 11 12 13 14 16 18 17 15 13 12 10 9 8 10 11 12 12 13 12 13 14 15 16 18
25 22 20 18 18 20 20 20 20 21 21 22 21 20 19 17 16 15 14 14 14 13 13 12 12 12 12 13 13 13 13 12 11 10 9 9 9 8 8 8 8 8 9 9 9 10 10 10 9 9 10 11 10 10 11 11 12 12 12 12 12 13 13 13 14 15 17 18 15 13 12 12 11 11 13 14 15 15 15 16 16 17 18 18 19
25 24 22 20 19 19 19 19 19 20 21 22 22 21 20 19 18 16 15 14 13 13 13 13 13 13 13 13 13 12 12 12 11 10 10 9 8 8 8 8 8 8 9 9 9 10 11 11 10 10 11 11 10 10 11 11 12 13 13 13 13 13 13 13 14 15 17 18 17 15 14 14 15 15 15 17 18 18 18 19 19 20 20 20 21
25 25 24 22 21 20 19 18 18 19 20 22 23 23 22 21 19 18 16 15 14 14 14 14 13 13 13 13 13 13 12 12 11 11 10 10 9 9 9 9 9 9 9 9 9 10 10 11 11 10 11 11 10 10 10 10 11 12 13 13 13 14 14 14 15 16 17 19 19 19 18 17 18 18 17 17 20 21 21 21 21 21 20 22 23
26 26 25 23 22 21 20 20 19 18 19 20 22 23 23 22 21 20 19 17 16 16 15 15 15 15 15 14 14 14 13 14 14 13 12 11 11 11 10 10 10 9 9 8 8 9 10 11 11 11 11 11 10 10 10 10 11 12 12 13 13 14 14 15 15 16 17 18 19 20 21 20 20 21 21 20 21 22 22 23 24 23 22 23 25
27 28 28 26 22 21 20 21 21 20 19 19 20 22 22 22 22 22 21 20 19 18 18 17 17 17 17 16 16 16 15 15 15 15 14 13 13 13 12 12 11 10 9 9 8 8 9 10 10 11 11 10 10 10 11 11 12 12 12 12 13 14 14 15 15 16 17 19 20 21 22 23 23 23 24 23 23 23 22 23 24 25 25 26 26
28 28 29 28 25 23 22 22 21 21 19 19 20 21 22 22 22 23 23 22 21 20 20 19 19 19 19 19 18 17 17 17 17 16 15 15 15 15 14 14 13 13 12 11 10 9 9 10 10 9 9 9 9 10 10 11 12 13 13 13 13 14 14 15 15 16 17 19 20 21 22 24 24 24 24 24 23 22 22 22 24 26 27 29 29
27 27 28 28 27 26 25 23 22 21 20 19 20 21 21 22 22 23 23 23 23 22 21 21 21 20 20 20 19 19 19 19 18 17 16 16 16 16 16 16 15 15 15 14 13 12 11 11 11 10 10 10 10 10 10 10 11 11 12 11 12 13 14 14 15 16 17 19 20 21 22 24 23 23 24 24 22 22 22 23 24 26 28 30 32
24 25 26 27 27 26 25 24 23 22 21 20 20 22 23 22 22 22 22 23 23 23 22 22 22 21 21 21 21 20 20 20 18 17 16 16 16 16 17 17 17 17 17 16 15 14 13 12 12 12 12 11 11 11 11 10 10 10 10 10 11 12 13 15 16 17 18 20 21 22 23 25 24 24 24 23 23 23 23 24 25 26 28 31 34
21 22 23 25 26 25 25 24 23 22 22 21 21 22 24 24 22 21 20 22 23 23 23 23 22 21 21 21 21 21 21 21 19 17 17 16 15 16 16 17 17 18 18 18 17 15 14 14 13 14 14 13 13 13 13 12 11 11 12 12 13 13 14 16 18 19 20 21 23 23 24 26 26 25 24 24 24 25 25 25 26 28 29 31 34
20 21 22 24 25 25 25 25 24 22 23 23 22 22 23 23 23 22 21 21 22 23 23 23 22 21 20 19 19 20 21 21 19 18 17 17 16 16 17 17 17 17 18 18 18 17 16 15 14 14 15 16 16 16 16 16 15 15 15 15 16 16 16 18 19 21 22 24 26 27 27 27 28 29 27 26 27 28 28 28 28 30 31 33 34
17 18 21 23 24 24 24 25 25 24 23 24 24 23 23 23 24 24 22 22 23 23 23 23 23 22 21 20 19 18 18 20 19 18 19 18 18 19 19 19 18 18 17 18 18 19 18 17 17 16 17 18 19 19 19 19 18 18 18 18 18 19 19 20 21 22 24 25 28 29 29 28 30 31 29 29 30 30 31 31 31 32 33 34 35
11 11 12 13 15 17 20 22 22 21 20 22 24 24 24 25 25 24 22 22 23 24 24 24 24 24 22 22 22 19 18 19 21 21 21 21 21 21 21 20 20 19 18 18 18 19 19 19 19 18 18 20 21 21 21 21 20 20 20 21 22 23 23 23 23 23 24 25 26 28 28 28 29 30 30 31 32 32 33 33 33 34 35 36 36
11 11 11 11 10 11 13 15 16 15 16 18 20 22 23 24 24 23 23 24 24 25 25 25 24 23 22 23 24 22 21 22 23 23 24 24 23 23 23 22 21 20 19 19 19 19 20 20 21 20 20 21 22 22 22 23 23 24 24 24 25 26 26 25 25 24 24 25 26 27 28 29 29 29 29 29 31 33 33 34 35 35 36 36 37
13 12 11 11 11 10 8 9 11 13 14 16 17 19 20 22 23 22 22 22 22 23 23 22 21 20 19 20 20 20 19 21 23 23 24 24 24 24 23 22 22 22 20 20 19 18 19 19 20 20 21 22 23 23 24 25 25 26 27 27 28 28 28 27 27 26 26 26 27 27 28 29 29 29 29 28 29 30 32 34 35 34 34 36 37
13 12 12 11 10 9 7 6 6 8 9 11 12 13 15 17 18 18 18 18 18 18 16 15 15 14 13 13 14 14 15 18 20 22 24 24 23 23 23 23 22 22 21 21 20 19 19 19 19 19 20 21 22 23 24 25 26 28 29 29 30 30 28 28 28 27 27 27 27 27 28 28 28 28 27 27 26 27 30 33 32 31 32 34 35
13 12 12 11 9 8 6 4 2 1 2 5 6 7 9 12 13 15 15 15 15 15 15 14 12 10 10 10 11 12 13 15 18 20 21 21 21 21 22 22 21 21 21 21 21 21 21 21 21 21 21 22 23 24 25 27 28 29 29 29 30 29 27 27 27 27 27 27 27 27 27 28 29 29 27 26 24 25 27 29 29 28 30 32 32
11 10 10 9 8 7 6 5 5 5 5 4 3 3 5 7 9 10 11 11 13 13 14 15 14 13 13 12 12 13 14 15 17 19 19 18 18 19 20 21 21 21 21 22 21 20 21 23 24 24 24 24 25 25 27 27 28 28 28 28 28 27 26 26 26 26 26 27 26 27 27 28 28 29 27 25 23 23 24 26 27 27 29 30 30
8 7 6 6 5 5 5 4 5 6 7 7 6 4 2 4 4 3 3 4 7 9 9 11 13 12 11 11 12 13 14 13 13 14 15 15 16 17 18 19 20 20 21 21 21 21 21 22 23 23 23 23 24 24 25 25 26 26 25 25 25 25 25 25 25 24 25 26 26 26 26 26 26 26 23 20 19 19 19 21 23 23 24 26 27
5 4 3 2 1 1 1 1 2 4 4 4 5 6 7 9 9 7 6 4 1 3 5 7 8 7 9 10 11 11 12 13 12 11 11 11 11 12 13 14 15 16 17 18 19 20 21 21 20 20 20 21 21 21 21 22 22 22 22 22 23 23 23 24 24 25 26 27 26 26 26 25 25 24 23 19 15 15 16 18 19 20 21 22 23
3 3 2 2 2 2 2 2 1 1 1 0 2 4 5 5 6 7 6 4 3 1 3 5 5 5 7 7 7 8 10 11 11 11 13 13 11 10 10 11 12 13 14 15 17 19 20 18 17 18 18 18 18 17 17 18 19 20 21 22 22 22 23 23 24 25 26 27 28 27 27 26 25 25 26 22 18 17 18 19 20 21 22 23 23
5 4 4 4 4 4 4 3 3 2 1 1 2 3 2 1 1 2 3 2 1 1 3 5 4 3 4 4 4 6 6 5 4 6 10 11 10 9 9 9 9 10 12 14 16 17 18 16 15 16 17 17 17 16 15 16 18 19 19 20 20 20 21 22 22 24 25 26 27 27 26 26 26 25 25 24 22 21 21 21 21 22 23 24 24
5 5 6 5 5 5 5 5 5 4 3 2 3 4 4 4 3 3 3 4 5 6 6 6 5 4 4 5 5 6 6 5 5 5 6 6 7 7 7 8 9 10 12 14 15 16 17 16 15 15 16 16 16 15 15 16 17 17 17 18 17 17 18 18 19 21 21 21 20 21 21 21 21 22 23 23 24 23 21 21 21 21 22 24 25
5 5 5 5 5 5 5 6 6 6 5 4 3 4 5 6 6 7 7 8 9 9 9 9 9 9 10 10 9 9 9 9 9 9 9 10 10 10 11 12 12 13 14 15 16 17 17 17 16 16 16 16 16 16 15 15 15 15 15 15 13 11 12 14 15 17 17 17 17 18 18 18 19 20 21 21 21 20 20 22 23 22 22 23 26
5 5 5 5 5 5 5 5 6 7 7 7 6 5 5 6 7 8 9 10 10 11 11 11 11 12 13 13 13 13 12 12 12 12 13 14 14 15 16 16 16 17 17 17 18 18 18 18 17 17 16 16 16 16 16 16 15 14 14 14 11 9 11 13 14 15 16 17 18 19 19 18 19 20 19 18 18 19 20 22 24 24 24 24 26
6 6 5 5 5 5 5 4 4 5 6 7 7 7 7 7 7 8 10 11 12 12 13 13 13 14 14 14 15 14 14 15 16 16 17 17 18 19 19 19 19 19 19 19 19 18 18 17 17 17 16 16 16 15 15 16 16 14 14 14 13 12 13 15 15 16 17 17 18 19 19 19 19 20 19 19 19 20 21 22 23 24 23 23 25
7 7 6 5 5 5 5 5 4 3 3 4 6 7 8 8 8 9 10 11 12 13 13 14 15 16 16 17 17 17 17 18 19 19 19 20 20 21 21 21 20 19 18 18 18 18 17 17 16 16 15 14 14 14 14 15 15 14 13 13 12 13 15 16 16 18 19 19 19 20 20 20 20 19 19 19 20 21 21 21 21 19 18 19 20
7 7 6 6 5 5 5 5 5 5 4 4 4 5 7 8 9 9 10 11 12 13 13 14 15 16 16 17 17 18 18 20 20 20 20 20 21 21 21 20 19 17 16 15 15 15 14 13 12 13 13 12 13 14 14 14 14 14 14 13 13 14 15 16 17 19 20 21 22 22 22 23 22 21 20 20 21 22 22 20 19 18 18 19 19
8 8 7 6 6 5 5 5 5 5 6 6 6 6 7 8 9 9 10 11 12 13 14 15 15 16 16 17 17 18 19 19 19 19 19 19 20 20 19 19 18 16 14 13 12 10 8 7 7 9 10 11 12 13 14 14 15 15 15 15 15 16 16 17 18 19 20 22 23 25 25 26 26 25 25 24 24 24 23 22 20 18 19 20 21
10 10 9 8 8 7 6 6 6 7 7 7 8 7 7 7 7 8 9 10 10 12 13 14 15 16 16 17 17 18 18 19 19 19 19 19 19 19 19 19 18 16 14 13 10 6 5 5 5 7 9 10 12 14 15 16 18 19 19 19 20 20 20 20 20 21 22 23 24 25 27 27 28 29 29 28 28 27 27 26 25 21 19 20 21
12 12 11 10 9 9 8 8 8 8 9 9 9 8 8 7 6 6 7 7 9 10 12 12 12 13 14 16 17 17 18 19 19 19 19 19 19 19 18 17 16 14 13 12 9 5 5 5 6 8 11 12 13 15 17 18 20 21 22 23 24 24 24 24 24 24 25 25 26 26 27 28 28 29 30 29 29 29 28 28 27 24 20 20 21
13 13 12 12 11 11 10 10 10 9 9 9 9 9 8 8 7 6 6 5 6 7 9 10 11 11 12 14 15 16 17 17 18 18 19 19 18 18 17 17 16 14 13 12 10 7 6 7 8 11 15 16 16 18 19 20 22 23 23 24 24 24 24 24 23 24 24 25 26 26 27 27 28 29 30 29 29 29 28 27 27 25 24 23 23
14 14 14 13 13 12 12 12 12 11 10 9 9 8 8 8 8 7 6 6 5 5 6 7 9 9 11 12 14 15 15 16 16 17 17 17 17 18 17 16 14 12 12 12 10 8 8 8 9 12 15 16 17 20 21 21 22 22 23 23 23 23 23 23 22 22 22 23 24 24 25 26 26 27 29 29 30 30 29 28 28 28 28 27 27
14 14 14 14 13 13 13 12 12 12 11 10 10 9 8 8 7 7 6 6 6 6 6 8 9 9 10 12 13 13 13 14 15 15 16 17 17 17 17 14 11 9 10 10 10 9 9 9 9 10 11 12 14 17 19 20 21 21 21 22 22 22 23 23 23 23 23 23 24 24 25 26 26 27 28 29 30 30 30 30 31 32 31 30 30
15 15 15 14 13 13 12 12 12 12 12 11 10 9 8 7 6 6 5 5 5 5 7 8 9 8 9 12 14 15 13 13 13 14 15 16 17 16 15 12 10 9 9 10 10 10 10 10 10 10 10 10 12 15 18 20 21 21 21 21 21 21 21 22 22 23 23 24 24 25 25 26 26 27 28 29 31 32 32 32 33 34 35 35 34
16 17 16 16 15 14 12 12 12 11 10 8 7 6 6 5 5 5 6 5 6 6 6 6 7 6 7 10 15 17 15 14 13 14 15 15 16 15 15 14 12 11 10 10 11 11 11 12 13 12 12 13 15 18 20 22 22 22 22 22 22 21 21 21 21 22 23 24 24 25 26 27 27 28 29 30 31 32 33 34 35 36 37 36 35
17 18 18 18 17 15 14 12 10 9 8 7 5 5 5 5 5 5 6 6 5 5 5 5 5 6 6 9 14 16 15 14 15 15 15 15 16 16 15 15 16 15 14 13 13 13 13 14 16 17 16 17 20 22 23 23 23 24 24 24 24 23 23 23 23 24 24 25 26 27 27 27 28 30 31 31 32 33 34 35 36 36 37 37 35
17 19 20 19 19 17 14 11 8 6 6 6 6 6 6 5 5 5 5 5 5 5 5 5 5 6 7 10 14 16 15 14 14 15 16 16 17 17 17 16 17 18 17 15 14 14 15 17 19 19 18 20 23 25 25 25 25 25 26 26 26 26 26 26 26 27 27 28 29 29 30 30 31 31 32 33 34 35 35 36 36 35 35 35 35
18 19 20 20 19 17 13 9 7 7 7 7 6 6 6 5 5 5 5 5 5 5 6 6 5 5 8 12 16 17 15 13 13 14 16 17 17 17 18 19 18 19 19 18 17 16 15 17 20 20 19 22 25 26 27 27 27 27 28 29 30 30 29 29 29 30 31 31 32 32 33 33 34 34 34 35 36 36 36 36 35 34 33 33 34
18 19 20 20 19 16 12 9 8 8 8 7 6 5 4 4 4 5 5 5 6 6 6 6 6 6 9 14 17 16 13 12 12 13 14 15 14 14 16 19 20 20 20 20 20 19 19 21 22 23 23 25 27 27 27 28 27 27 29 31 33 33 32 31 31 32 33 33 33 33 34 35 35 35 35 35 35 36 35 35 35 35 34 33 34
18 19 19 18 17 15 13 11 9 7 6 5 4 4 4 4 4 4 5 5 5 6 6 6 7 7 8 12 15 15 14 14 14 15 15 15 14 13 13 15 17 19 20 20 21 23 25 25 25 26 26 27 27 28 28 27 27 28 30 32 34 35 34 32 33 34 34 32 32 33 35 35 35 35 35 35 34 34 33 34 35 36 35 34 34
18 18 17 16 15 13 12 10 7 5 4 4 4 4 4 4 4 5 5 5 5 6 6 6 7 8 8 10 13 15 16 17 18 18 17 16 16 15 14 13 13 16 19 21 22 24 26 26 26 27 28 28 28 29 30 29 29 29 30 31 31 32 34 35 36 36 34 32 32 34 35 34 34 34 34 32 31 31 32 34 36 37 37 37 38
17 15 14 13 11 9 7 6 5 4 3 4 4 4 4 4 4 5 5 5 5 6 6 6 7 8 8 9 11 13 15 16 16 16 15 15 15 15 16 15 14 15 18 21 21 22 24 26 27 28 29 30 30 31 31 31 30 29 28 29 30 33 36 38 38 35 34 34 35 35 35 34 33 32 30 27 27 30 34 37 38 38 39 39 39
14 12 11 10 8 6 5 4 3 3 3 5 6 5 4 4 4 5 5 6 6 6 6 6 7 7 8 8 10 11 11 12 12 12 13 13 13 13 13 14 15 15 17 20 22 23 24 25 26 28 29 30 31 30 30 30 29 28 29 31 34 36 38 38 35 31 31 34 36 36 35 34 33 31 29 29 32 36 38 39 39 41 42 42 42
11 10 10 9 7 6 5 4 3 4 5 6 6 6 5 4 5 5 5 6 7 7 7 7 7 8 8 9 9 9 9 10 10 11 12 12 12 12 13 14 14 15 15 17 20 23 25 26 27 29 30 31 31 31 32 32 32 33 34 36 37 38 38 36 32 31 32 35 37 37 36 35 34 34 33 35 38 39 39 40 41 42 42 42 43
9 9 9 7 5 4 4 4 4 5 5 5 5 5 5 4 4 4 5 7 8 8 8 8 9 9 9 10 10 10 11 11 11 11 12 12 13 13 14 14 15 15 15 15 16 19 22 25 28 29 31 32 33 34 35 36 36 37 37 37 37 37 36 34 33 35 37 38 38 38 38 38 39 39 38 39 40 40 39 40 41 41 39 38 39
7 7 6 4 2 2 3 4 4 5 6 6 5 5 5 5 6 7 7 8 9 9 9 9 9 9 9 10 11 11 11 11 11 12 12 12 13 14 15 15 15 16 16 16 16 18 21 23 24 26 27 28 29 30 31 32 33 34 34 34 34 36 36 35 36 37 38 38 38 38 39 39 40 40 40 40 39 39 38 39 41 42 42 42 41
5 4 3 2 2 3 3 4 4 5 6 6 5 5 5 6 7 7 8 9 9 9 8 8 8 8 9 9 10 10 10 10 11 11 12 12 13 14 15 15 15 15 16 17 18 20 21 22 22 22 23 22 22 22 22 23 24 25 26 29 32 34 35 34 35 36 36 37 38 39 39 39 40 39 39 38 38 37 38 39 40 41 42 44 44
3 3 3 3 3 3 3 3 3 4 4 4 4 5 6 7 7 7 8 9 9 9 8 8 9 9 9 9 9 10 10 11 11 11 12 13 14 14 15 15 16 17 19 19 19 19 19 20 20 20 21 21 22 22 21 20 20 22 25 29 32 32 32 31 32 32 33 34 36 37 38 38 38 38 38 37 36 36 37 39 40 40 41 41 40
Wind_Direction
230 230 230 229 229 227 227 227 227 226 224 224 226 227 225 223 223 224 225 224 225 226 223 217 216 221 226 229 229 225 219 220 227 232 235 237 239 241 242 243 246 249 249 249 250 253 254 256 259 262 266 270 273 274 276 278 282 287 290 291 294 297 298 297 295 297 303 306 309 314 313 307 308 309 306 309 312 310 313 318 321 323 324 322 319
234 233 234 233 231 229 228 228 229 228 226 226 227 227 228 227 227 228 228 225 224 225 225 222 222 225 228 232 232 228 224 223 228 232 235 237 238 241 242 242 245 248 250 251 252 255 256 257 258 263 268 272 277 277 275 274 276 282 286 286 289 293 295 297 296 296 301 307 312 318 319 312 311 316 315 316 314 311 311 313 315 317 318 317 315
237 235 237 238 235 232 230 228 229 230 230 229 228 228 229 229 229 231 231 229 226 226 226 229 231 232 233 235 235 233 231 230 231 233 237 238 236 239 242 242 244 247 251 253 254 254 256 258 260 264 268 272 276 277 276 275 276 279 282 283 288 292 293 294 293 294 299 305 310 315 315 309 308 312 314 313 312 311 311 311 312 314 314 314 312
240 238 238 240 239 236 234 231 229 229 231 233 231 230 230 230 230 231 233 232 229 228 229 232 234 235 235 237 237 238 237 236 237 239 242 243 242 243 245 247 249 252 255 257 258 258 258 259 261 264 268 272 275 277 277 278 280 281 283 286 290 293 293 291 289 290 293 298 302 305 304 300 299 303 307 309 309 310 311 313 315 316 316 316 315
243 242 239 239 240 239 238 236 234 232 232 234 234 233 232 232 232 232 234 234 232 230 231 232 235 236 236 237 237 238 238 239 241 243 245 248 248 248 248 251 255 258 261 262 263 263 263 263 264 264 266 271 274 275 276 277 279 280 282 286 289 291 292 292 291 290 290 292 294 295 294 292 292 295 302 307 308 309 311 313 314 316 318 318 318
245 246 245 243 243 244 243 241 240 237 236 236 237 236 235 234 234 234 236 236 236 235 235 234 236 238 239 240 238 237 237 239 241 241 243 245 245 245 247 249 252 254 258 261 263 265 267 269 271 271 270 271 273 275 277 278 279 279 280 282 284 286 289 290 291 291 290 290 292 293 292 291 291 294 299 304 306 307 308 308 307 310 314 316 316
241 242 246 248 248 248 247 246 244 243 241 239 239 239 238 237 237 237 239 240 241 242 242 241 240 240 241 241 240 240 238 238 238 236 236 237 237 239 242 246 247 248 249 252 256 261 265 268 270 271 271 272 275 278 279 280 280 280 281 283 285 287 288 290 291 291 291 291 290 291 291 291 291 294 298 301 302 304 307 307 305 305 309 311 312
236 238 243 246 249 250 248 245 242 241 241 240 240 241 241 241 241 241 242 243 245 246 248 248 247 244 241 239 239 239 238 238 238 235 232 232 235 239 241 242 244 245 244 245 248 251 255 260 263 265 267 269 271 273 275 278 279 279 280 283 286 287 289 291 292 293 294 294 293 292 292 291 292 295 298 301 303 305 309 311 309 308 310 309 308
236 239 242 245 249 250 247 243 240 240 240 240 239 239 241 242 242 243 243 244 245 247 249 250 250 247 244 241 238 236 237 238 239 237 235 236 240 245 246 245 245 247 246 245 245 244 245 250 254 258 263 265 267 270 273 277 278 279 280 282 285 288 291 293 294 295 296 295 295 296 295 295 297 300 301 302 304 306 309 312 312 312 313 310 307
238 241 243 247 252 253 250 244 239 237 237 237 236 236 237 241 243 244 244 244 245 246 248 249 247 246 246 244 242 239 239 240 240 239 239 241 246 250 252 250 249 250 251 250 250 249 250 253 254 256 259 263 268 272 274 277 279 281 283 286 289 293 295 296 297 299 299 299 299 300 300 299 299 302 303 303 305 307 309 311 312 312 313 311 308
238 239 241 244 248 250 251 248 241 235 234 235 235 233 232 234 238 243 246 246 246 246 247 246 244 245 246 246 245 245 245 246 246 244 242 244 248 253 257 256 254 253 252 252 253 254 257 261 263 262 260 262 268 271 274 276 278 281 282 284 286 290 294 296 298 298 298 298 299 300 300 300 301 302 302 303 305 305 305 307 308 310 312 311 311
237 236 236 238 240 242 246 248 244 238 235 236 237 235 233 232 233 237 242 246 247 246 245 243 241 241 244 246 247 248 250 251 250 248 246 246 249 255 260 261 260 258 256 255 255 257 260 265 268 268 264 262 265 268 268 269 269 270 271 272 274 279 284 288 291 293 294 295 294 294 295 297 298 298 299 300 300 299 299 301 303 305 306 307 307
228 230 229 231 235 239 242 245 246 242 238 238 238 237 235 234 234 236 239 243 245 245 244 243 241 240 242 245 248 250 252 251 248 247 248 249 252 258 261 262 263 262 260 260 260 261 262 265 267 266 263 261 261 262 262 261 260 260 263 265 268 272 276 281 286 289 290 290 290 289 289 291 291 291 292 294 294 293 294 296 297 298 299 300 301
214 218 221 225 231 235 237 240 243 242 238 237 237 236 234 233 232 234 237 241 242 242 242 244 244 243 242 243 246 250 255 256 253 252 254 255 258 262 263 263 264 263 262 261 260 260 261 263 264 262 260 259 259 258 258 259 259 261 265 270 275 279 283 287 291 291 290 288 287 286 286 287 286 286 286 286 286 287 289 291 293 293 294 295 297
181 184 192 203 216 223 226 230 236 238 236 235 235 233 230 229 230 232 237 241 240 239 241 242 244 246 247 249 249 248 254 260 262 262 261 261 262 263 263 264 264 263 262 261 258 255 255 256 258 258 258 259 259 260 261 262 264 268 273 278 282 287 291 296 298 295 292 289 287 287 287 287 286 285 284 283 282 282 283 285 287 289 291 293 295
129 133 144 153 162 177 195 210 219 224 226 228 231 230 226 225 227 233 238 241 240 238 239 240 241 243 247 251 252 254 258 261 263 264 264 264 263 264 264 264 265 264 263 261 259 256 254 255 257 259 261 262 263 264 265 268 271 274 277 281 287 292 296 299 299 295 291 289 288 289 290 290 290 288 286 283 281 281 281 280 282 285 289 292 295
106 113 123 129 128 131 149 179 199 205 205 209 215 218 218 219 222 227 234 239 240 238 238 241 244 245 247 250 254 259 260 259 261 263 263 263 262 261 262 263 264 264 263 263 263 263 262 261 261 263 264 264 266 267 269 271 274 276 279 283 289 293 297 299 297 295 294 293 292 293 294 294 293 291 290 287 284 281 280 278 280 284 288 291 295
96 101 104 106 109 117 127 148 188 202 196 198 205 205 207 213 217 221 225 230 234 235 234 236 240 243 245 249 254 256 255 257 262 262 259 258 257 257 257 258 259 260 261 261 262 264 265 265 266 266 267 267 269 270 271 273 275 277 280 285 288 292 295 295 294 294 295 295 295 295 296 297 296 293 291 291 288 282 278 278 281 283 285 288 292
86 88 90 90 89 91 95 105 138 188 183 195 204 202 205 211 214 217 220 220 221 224 225 226 228 228 228 235 243 245 245 248 250 250 248 248 249 250 252 253 255 255 256 257 259 260 262 263 264 265 267 268 269 269 271 273 275 278 281 284 287 290 293 293 293 294 295 296 297 297 297 298 297 294 293 293 292 286 281 281 281 280 281 284 288
84 83 83 82 78 70 61 61 60 48 52 75 99 161 197 203 205 210 213 214 218 222 223 225 230 232 233 237 245 250 250 244 238 239 241 242 244 247 250 251 252 253 255 256 257 259 260 262 263 264 265 266 268 270 272 275 277 279 282 284 287 289 291 291 293 295 296 297 298 298 298 298 298 299 298 298 296 292 287 283 281 279 280 283 285
82 79 80 80 79 74 62 57 50 42 51 62 54 46 89 88 84 133 162 193 213 217 217 221 229 236 239 247 257 264 263 251 237 239 242 239 242 248 251 254 256 257 259 260 262 263 263 264 265 266 268 269 271 273 275 277 279 282 284 286 287 289 290 292 295 296 296 297 298 297 298 299 300 302 303 301 297 293 289 286 285 283 280 281 283
71 63 64 67 70 83 77 44 23 30 50 61 33 35 60 62 57 65 71 66 119 200 219 222 225 235 242 250 258 261 262 257 249 246 242 234 234 240 248 256 260 262 265 268 269 269 267 265 267 269 272 274 275 275 276 278 280 283 286 287 289 290 292 293 296 296 295 296 296 296 298 299 301 302 303 302 298 290 283 281 281 279 278 279 282
38 23 3 338 318 295 282 285 303 348 22 78 41 53 68 61 51 60 63 57 61 46 256 236 227 238 250 258 261 258 263 266 259 247 241 240 239 240 245 252 257 263 270 274 276 276 277 280 284 285 285 286 286 285 283 282 283 285 288 290 292 293 294 295 296 297 297 297 296 296 297 297 298 299 300 303 303 298 293 289 284 280 279 282 284
357 352 342 333 322 308 300 300 300 304 300 194 172 144 120 101 54 59 67 82 128 188 233 235 237 254 265 268 265 258 263 274 267 246 244 247 252 252 254 260 268 276 281 282 282 283 286 292 295 293 292 292 294 294 292 288 287 288 290 292 293 295 297 298 299 299 299 299 299 298 298 297 297 298 299 303 305 304 303 302 297 292 289 287 287
347 340 334 329 323 314 305 300 300 298 294 264 204 191 179 169 175 178 177 189 199 203 211 220 223 222 217 216 226 236 238 242 251 259 263 268 272 275 279 284 289 289 287 286 286 287 289 291 290 288 290 292 292 293 292 290 290 291 292 293 295 297 298 299 299 299 300 302 303 303 302 301 300 299 300 303 305 305 305 304 302 300 298 295 293
3 349 337 327 318 311 304 299 300 297 292 287 264 231 212 199 193 192 191 198 205 207 211 216 216 212 211 215 224 235 241 244 248 255 263 272 278 283 287 289 290 290 289 287 287 287 288 289 289 289 291 292 292 293 292 291 291 292 291 291 295 300 299 297 298 299 300 303 306 306 306 307 306 304 304 305 306 306 304 302 301 301 299 297 296
14 10 355 338 322 309 298 292 292 293 295 293 288 276 254 233 222 216 212 212 215 217 219 221 220 220 223 226 234 243 253 258 261 262 265 270 274 278 282 285 288 289 289 287 285 284 285 287 288 289 290 292 293 294 293 292 293 292 288 286 286 289 288 288 292 294 295 298 302 304 307 310 311 312 311 309 308 309 308 305 303 302 301 299 296
13 12 4 350 336 322 312 303 288 282 285 285 285 284 279 269 257 246 237 232 231 231 233 234 236 238 240 241 245 252 260 265 268 270 272 274 276 277 279 282 284 286 287 285 282 281 281 283 285 288 289 291 292 292 292 293 294 294 290 285 283 282 281 282 285 287 289 293 296 298 302 307 311 314 315 315 314 315 316 315 311 308 307 305 300
10 8 2 352 343 333 329 328 322 308 291 282 280 280 277 275 272 266 261 255 250 247 246 245 246 249 252 254 257 260 265 268 271 274 277 279 281 282 283 284 286 288 288 286 284 282 282 285 289 290 292 292 292 292 293 294 295 295 293 290 290 290 290 291 293 294 296 299 301 303 305 306 307 310 313 316 317 319 321 323 320 316 313 309 303
8 7 2 353 345 341 336 330 328 329 322 310 300 291 284 279 275 270 268 267 265 263 262 259 258 258 259 261 264 265 268 270 272 276 279 281 284 287 289 292 294 296 295 291 288 285 285 287 290 291 294 294 292 292 294 294 295 298 298 299 301 300 299 302 302 302 303 306 307 309 309 309 308 307 308 310 312 314 318 321 322 320 317 313 308
7 6 4 2 358 352 340 330 325 322 319 315 312 306 298 291 286 282 279 275 272 270 269 268 268 268 266 266 267 268 270 272 274 278 280 282 285 289 292 295 299 302 303 299 294 288 285 285 283 285 291 294 292 292 294 295 295 296 298 301 303 303 304 306 306 305 306 308 309 310 310 310 310 309 307 308 309 310 311 314 317 319 317 315 312
14 10 6 6 7 2 351 342 335 327 321 317 313 310 308 301 294 289 285 281 278 276 273 271 271 271 271 270 269 269 270 272 274 276 278 280 283 285 287 290 293 297 299 299 296 290 280 277 278 286 293 295 292 292 294 296 297 298 299 300 301 301 302 304 304 305 306 307 308 309 310 310 310 310 309 309 309 308 306 307 311 313 312 311 311
16 12 7 4 3 358 351 346 338 330 323 317 313 311 310 308 304 298 289 280 273 269 270 271 272 271 272 272 271 270 269 269 270 271 273 275 277 279 281 283 284 286 290 293 293 287 278 276 279 288 293 294 295 296 297 298 299 300 302 303 304 304 304 304 305 304 304 304 305 306 308 309 309 309 309 310 309 308 306 305 306 307 306 305 304
13 10 6 2 359 354 349 344 337 331 324 316 312 310 308 306 308 309 305 297 281 264 257 258 262 264 264 266 268 270 270 269 268 268 269 270 272 274 276 279 281 282 284 285 285 280 277 276 280 285 288 289 293 297 300 302 304 305 307 308 309 308 308 309 310 309 307 307 306 306 306 307 307 308 309 310 310 310 309 306 304 303 302 299 295
8 5 3 0 357 353 349 342 335 330 324 318 312 306 300 301 303 301 299 299 296 283 265 256 254 254 255 256 259 261 264 266 266 265 266 267 270 272 275 278 282 283 283 284 282 278 276 278 283 286 287 288 291 295 298 301 304 307 310 311 311 311 312 313 313 313 312 311 310 310 309 309 310 309 309 309 310 310 309 307 305 304 304 302 297
360 360 359 359 356 352 347 340 331 325 321 317 310 302 297 297 296 292 290 289 289 291 289 281 271 264 261 263 263 262 263 265 265 265 265 266 269 273 277 279 277 273 273 277 277 277 279 281 282 285 288 290 294 296 298 300 302 305 307 309 310 311 312 313 313 313 313 313 312 312 311 311 311 311 310 310 310 310 310 309 308 307 306 305 302
350 352 352 352 351 349 345 338 327 319 314 308 303 299 298 296 291 285 282 281 281 283 286 287 285 276 267 266 267 267 267 268 267 267 268 268 269 273 277 277 272 267 269 272 274 277 280 279 279 283 286 289 293 297 299 301 303 304 305 306 307 307 307 308 309 311 312 312 312 312 312 311 311 311 311 310 310 310 311 311 311 310 308 307 306
341 343 342 342 342 343 342 336 327 318 311 304 297 294 294 292 288 285 282 284 288 287 285 288 289 284 275 268 265 264 265 265 265 266 267 268 268 268 268 267 266 266 267 269 271 275 279 280 279 280 283 287 291 295 297 299 301 302 303 304 305 304 304 304 304 306 307 308 309 309 309 310 311 311 312 311 311 311 311 312 311 310 309 308 308
332 333 333 333 333 334 335 333 325 315 307 300 292 289 288 283 283 287 289 291 294 292 290 289 284 281 284 281 276 272 269 264 262 263 265 265 265 265 265 264 264 264 265 268 271 274 278 279 278 279 282 288 291 293 295 297 298 299 301 302 302 303 303 303 303 303 303 304 304 304 305 306 308 309 310 310 310 310 310 310 310 310 309 308 307
325 326 327 328 328 328 328 325 317 306 300 294 287 284 285 284 286 291 293 294 295 294 292 292 291 292 292 288 285 285 285 280 274 272 269 266 264 263 265 267 267 266 267 268 270 271 272 274 276 277 280 285 289 291 293 295 297 298 299 300 301 302 303 304 304 304 304 303 302 302 303 304 304 305 305 306 306 307 308 308 308 309 308 308 307
320 321 323 324 324 323 322 317 305 292 286 284 281 280 281 283 286 288 289 292 295 295 293 292 295 294 285 280 283 289 294 293 286 280 277 275 273 270 268 268 269 269 269 270 271 270 268 267 269 272 276 281 284 286 288 291 294 297 298 299 299 300 302 304 306 306 305 303 302 302 302 303 303 303 303 303 304 305 306 306 306 306 306 305 306
317 318 319 320 319 317 313 305 298 292 288 284 280 276 274 275 276 280 284 289 290 292 294 294 295 289 282 282 286 290 294 292 287 283 283 285 286 283 279 275 272 270 270 270 271 270 265 261 263 268 273 277 279 281 283 286 289 293 296 297 298 299 299 300 303 306 305 303 301 301 300 300 301 301 302 303 304 304 304 304 304 304 304 303 305
313 314 315 314 312 308 302 297 296 295 290 283 278 275 275 277 275 277 280 281 284 288 291 291 292 293 291 290 289 288 287 286 286 288 289 287 286 286 286 284 279 274 268 265 265 265 264 262 261 264 269 273 275 277 279 281 284 288 292 294 296 297 298 300 303 306 305 303 301 301 300 299 299 300 300 301 302 302 303 304 304 304 304 303 303
311 311 312 310 304 299 296 293 291 287 281 281 283 279 276 275 275 276 278 281 284 287 286 286 288 290 292 292 289 287 286 287 289 291 290 287 283 282 281 283 286 282 274 268 264 263 264 263 262 262 266 270 273 276 278 281 284 286 288 290 293 296 300 303 305 305 303 301 301 302 301 300 298 298 298 299 299 299 302 304 305 305 305 304 303
310 309 308 303 298 294 291 286 282 282 282 280 275 271 272 275 275 278 282 284 285 285 285 286 287 287 288 290 291 291 293 294 295 295 293 288 286 284 282 282 286 285 279 273 269 267 266 266 265 266 268 270 273 276 278 279 280 279 281 285 290 295 298 301 301 299 298 299 302 303 301 299 297 296 294 294 295 298 301 303 304 303 303 302 301
310 307 301 295 290 287 281 273 273 275 270 267 265 268 274 277 277 280 283 282 282 286 288 288 288 289 290 292 294 298 301 302 301 301 300 297 294 293 292 291 291 289 281 274 270 268 268 269 269 270 271 272 273 274 275 275 275 277 279 284 288 292 295 296 294 293 295 299 302 301 299 297 295 293 290 290 293 297 299 301 302 302 302 301 300
307 302 295 290 287 284 278 273 270 270 269 270 272 275 279 282 283 285 285 282 282 285 288 289 290 292 293 296 300 302 304 304 302 302 304 304 301 298 297 296 297 297 293 283 274 270 269 270 271 272 274 275 276 278 278 279 281 283 284 285 287 290 291 289 287 288 292 295 296 295 294 292 292 291 290 290 292 295 297 299 300 302 301 300 299
305 301 297 294 291 288 285 283 282 280 280 284 286 285 286 288 289 288 291 291 293 295 296 296 296 297 297 299 302 301 301 304 305 304 304 304 302 299 299 298 297 298 298 295 288 281 278 277 277 278 279 280 281 282 283 283 283 283 283 284 284 285 284 284 285 288 291 292 291 290 289 289 289 289 288 289 290 292 294 296 298 299 299 297 296
301 300 300 299 296 296 296 295 293 293 295 297 297 295 294 294 293 295 300 302 304 306 305 302 301 301 300 300 301 303 305 307 308 307 305 302 298 297 300 302 301 299 298 298 297 297 294 292 289 288 287 287 286 286 287 287 287 286 286 284 283 282 283 284 285 287 288 289 289 288 286 285 285 285 286 287 288 289 291 294 296 297 297 296 294
304 305 309 311 309 308 306 303 300 301 303 305 305 305 304 303 304 307 311 312 313 314 313 308 306 308 309 307 307 308 308 306 305 306 305 302 300 302 305 306 304 303 302 301 301 303 303 301 299 297 295 293 292 291 290 290 290 289 287 285 285 285 285 285 285 286 287 288 288 287 284 283 283 283 284 285 285 286 290 293 294 295 296 295 294
317 319 321 321 318 315 315 314 309 308 310 311 310 307 307 311 314 315 315 317 318 318 316 314 313 314 314 313 311 309 307 305 305 305 304 305 307 306 300 296 297 302 304 304 304 304 304 302 301 299 297 296 296 296 294 293 291 289 288 290 291 291 290 289 288 287 287 287 286 284 283 282 282 283 284 283 283 285 289 291 292 292 292 292 292